sat.trackr.live / text

‹ back to catalog

ONEWEB-0683

NORAD 56719 · 2023-068K

PAYLOAD ACTIVE UNKNOWN

§ Identity

Operator
Country
UK
Launch date
2023-05-20
Launch site
AFWTR
Launch vehicle
Mass (kg)
RCS (m²)

Purposes: comms

External: N2YO · Heavens-Above · Gunter

§ Orbital elements

Epoch: 2026-09-19T17:55:22.164384Z

Period
109.46 min
Inclination
87.8993°
Eccentricity
0.0001834
Mean motion
13.15548267 rev/d
Perigee alt
1,200.4 km
Apogee alt
1,203.2 km
Semi-major
7,579.9 km
B*
-1.5968e-4
RAAN
240.3459°
Arg perigee
88.7987°
Mean anomaly
271.3353°
Rev number
16,185

§ Raw data

ONEWEB-06831 56719U 23068K   26262.74678431 -.00000047  00000+0 -15968-3 0  99992 56719  87.8993 240.3459 0001834  88.7987 271.3353 13.15548267161851

JSON: /api/v1/satellites/56719 · /tle

For live sub-satellite position, see the globe view (requires WebGL).

§ Visibility from observer

Set your observer location to see the next 7 days of passes ≥ 10°. The values pass through the URL so the page stays shareable.

No JS? Fill the form by hand. The geolocation button needs JavaScript.